Time,TemperatureF,DewpointF,PressureIn,WindDirection,WindDirectionDegrees,WindSpeedMPH,WindSpeedGustMPH,Humidity,HourlyPrecipIn,Conditions,Clouds,dailyrainin,SoftwareType,DateUTC
2013-03-08 00:04:00,23.8,21.0,30.20,NW,322,0.0,0.0,91,0.00,,,0.00,TxWx,2013-03-08 06:04:00,
2013-03-08 00:10:00,23.7,21.0,30.20,NW,322,0.0,0.0,91,0.00,,,0.00,TxWx,2013-03-08 06:10:00,
2013-03-08 00:15:00,23.6,21.0,30.20,NW,322,0.0,0.0,91,0.00,,,0.00,TxWx,2013-03-08 06:15:00,
2013-03-08 00:20:00,23.5,20.0,30.20,NW,322,0.0,0.0,91,0.00,,,0.00,TxWx,2013-03-08 06:20:00,
2013-03-08 00:25:00,23.4,20.0,30.20,NW,322,0.0,0.0,92,0.00,,,0.00,TxWx,2013-03-08 06:25:00,
2013-03-08 00:30:00,23.2,20.0,30.21,NW,322,0.0,0.0,92,0.00,,,0.00,TxWx,2013-03-08 06:30:00,
2013-03-08 00:36:00,23.1,20.0,30.20,NW,322,0.0,0.0,92,0.00,,,0.00,TxWx,2013-03-08 06:36:00,
2013-03-08 00:41:00,22.9,20.0,30.21,NW,322,0.0,0.0,92,0.00,,,0.00,TxWx,2013-03-08 06:41:00,
2013-03-08 00:46:00,22.9,20.0,30.21,NW,322,0.0,0.0,92,0.00,,,0.00,TxWx,2013-03-08 06:46:00,
2013-03-08 00:51:00,22.8,20.0,30.21,NW,322,0.0,0.0,92,0.00,,,0.00,TxWx,2013-03-08 06:51:00,
2013-03-08 00:56:00,22.9,20.0,30.22,NW,322,0.0,0.0,92,0.00,,,0.00,TxWx,2013-03-08 06:56:00,
2013-03-08 01:01:00,22.9,20.0,30.22,NW,322,0.0,0.0,92,0.00,,,0.00,TxWx,2013-03-08 07:01:00,
2013-03-08 01:06:00,22.9,20.0,30.22,NW,322,0.0,0.0,92,0.00,,,0.00,TxWx,2013-03-08 07:06:00,
2013-03-08 01:11:00,22.8,20.0,30.22,NW,314,0.0,0.0,92,0.00,,,0.00,TxWx,2013-03-08 07:11:00,
2013-03-08 01:16:00,22.7,20.0,30.22,NW,314,0.0,0.0,92,0.00,,,0.00,TxWx,2013-03-08 07:16:00,
2013-03-08 01:22:00,22.8,20.0,30.22,NW,314,0.0,0.0,92,0.00,,,0.00,TxWx,2013-03-08 07:22:00,
2013-03-08 01:27:00,22.7,20.0,30.22,NW,314,0.0,0.0,92,0.00,,,0.00,TxWx,2013-03-08 07:27:00,
2013-03-08 01:32:00,22.6,20.0,30.22,NW,314,0.0,0.0,92,0.00,,,0.00,TxWx,2013-03-08 07:32:00,
2013-03-08 01:38:00,22.6,20.0,30.22,NW,314,0.0,0.0,93,0.00,,,0.00,TxWx,2013-03-08 07:38:00,
2013-03-08 01:43:00,22.5,20.0,30.22,NW,314,0.0,0.0,93,0.00,,,0.00,TxWx,2013-03-08 07:43:00,
2013-03-08 01:48:00,22.5,19.0,30.22,NW,314,0.0,0.0,93,0.00,,,0.00,TxWx,2013-03-08 07:48:00,
2013-03-08 01:53:00,22.3,19.0,30.23,NW,314,0.0,0.0,93,0.00,,,0.00,TxWx,2013-03-08 07:53:00,
2013-03-08 01:59:00,22.3,19.0,30.23,NW,314,0.0,0.0,93,0.00,,,0.00,TxWx,2013-03-08 07:59:00,
2013-03-08 02:04:00,22.3,19.0,30.23,NW,314,0.0,0.0,93,0.00,,,0.00,TxWx,2013-03-08 08:04:00,
2013-03-08 02:09:00,22.2,19.0,30.23,NW,314,0.0,0.0,93,0.00,,,0.00,TxWx,2013-03-08 08:09:00,
2013-03-08 02:14:00,22.2,19.0,30.23,NW,314,0.0,0.0,93,0.00,,,0.00,TxWx,2013-03-08 08:14:00,
2013-03-08 02:20:00,22.1,19.0,30.23,NW,314,0.0,0.0,93,0.00,,,0.00,TxWx,2013-03-08 08:20:00,
2013-03-08 02:25:00,22.0,19.0,30.23,NW,314,0.0,0.0,93,0.00,,,0.00,TxWx,2013-03-08 08:25:00,
2013-03-08 02:30:00,21.9,19.0,30.23,NW,314,0.0,0.0,93,0.00,,,0.00,TxWx,2013-03-08 08:30:00,
2013-03-08 02:35:00,21.8,19.0,30.23,NW,314,0.0,0.0,93,0.00,,,0.00,TxWx,2013-03-08 08:35:00,
2013-03-08 02:40:00,21.9,19.0,30.23,NW,314,0.0,0.0,93,0.00,,,0.00,TxWx,2013-03-08 08:40:00,
2013-03-08 02:45:00,21.8,19.0,30.23,NW,314,0.0,0.0,93,0.00,,,0.00,TxWx,2013-03-08 08:45:00,
2013-03-08 02:50:00,21.7,19.0,30.24,NW,314,0.0,0.0,93,0.00,,,0.00,TxWx,2013-03-08 08:50:00,
2013-03-08 02:55:00,21.5,18.0,30.23,NW,314,0.0,0.0,93,0.00,,,0.00,TxWx,2013-03-08 08:55:00,
2013-03-08 03:01:00,21.3,18.0,30.23,NW,314,0.0,0.0,93,0.00,,,0.00,TxWx,2013-03-08 09:01:00,
2013-03-08 03:06:00,21.2,18.0,30.23,NW,314,0.0,0.0,93,0.00,,,0.00,TxWx,2013-03-08 09:06:00,
2013-03-08 03:11:00,21.0,18.0,30.23,NW,314,0.0,0.0,93,0.00,,,0.00,TxWx,2013-03-08 09:11:00,
2013-03-08 03:16:00,21.2,18.0,30.22,NW,314,0.0,0.0,94,0.00,,,0.00,TxWx,2013-03-08 09:16:00,
2013-03-08 03:21:00,21.3,18.0,30.22,North,9,0.0,0.0,94,0.00,,,0.00,TxWx,2013-03-08 09:21:00,
2013-03-08 03:26:00,21.4,18.0,30.22,North,8,0.0,0.0,94,0.00,,,0.00,TxWx,2013-03-08 09:26:00,
2013-03-08 03:32:00,21.4,18.0,30.22,North,10,0.0,0.0,94,0.00,,,0.00,TxWx,2013-03-08 09:32:00,
2013-03-08 03:37:00,21.3,18.0,30.22,North,3,0.0,0.0,94,0.00,,,0.00,TxWx,2013-03-08 09:37:00,
2013-03-08 03:42:00,21.2,18.0,30.23,North,3,0.0,0.0,94,0.00,,,0.00,TxWx,2013-03-08 09:42:00,
2013-03-08 03:47:00,21.2,18.0,30.23,North,9,0.0,0.0,94,0.00,,,0.00,TxWx,2013-03-08 09:47:00,
2013-03-08 03:52:00,21.3,18.0,30.23,North,3,0.0,0.0,94,0.00,,,0.00,TxWx,2013-03-08 09:52:00,
2013-03-08 03:57:00,21.2,18.0,30.24,North,3,0.0,0.0,94,0.00,,,0.00,TxWx,2013-03-08 09:57:00,
2013-03-08 04:03:00,21.1,18.0,30.24,North,4,0.0,0.0,94,0.00,,,0.00,TxWx,2013-03-08 10:03:00,
2013-03-08 04:08:00,21.0,18.0,30.24,North,0,0.0,0.0,94,0.00,,,0.00,TxWx,2013-03-08 10:08:00,
2013-03-08 04:13:00,20.9,18.0,30.24,NNE,21,0.0,0.0,94,0.00,,,0.00,TxWx,2013-03-08 10:13:00,
2013-03-08 04:18:00,20.8,18.0,30.25,North,0,0.0,0.0,94,0.00,,,0.00,TxWx,2013-03-08 10:18:00,
2013-03-08 04:23:00,20.7,18.0,30.24,North,3,0.0,0.0,94,0.00,,,0.00,TxWx,2013-03-08 10:23:00,
2013-03-08 04:29:00,20.7,18.0,30.24,North,3,0.0,0.0,94,0.00,,,0.00,TxWx,2013-03-08 10:29:00,
2013-03-08 04:34:00,20.7,18.0,30.24,North,4,0.0,0.0,94,0.00,,,0.00,TxWx,2013-03-08 10:34:00,
2013-03-08 04:39:00,20.7,18.0,30.24,North,5,0.0,0.0,94,0.00,,,0.00,TxWx,2013-03-08 10:39:00,
2013-03-08 04:44:00,20.8,18.0,30.24,North,2,0.0,0.0,94,0.00,,,0.00,TxWx,2013-03-08 10:44:00,
2013-03-08 04:49:00,20.7,18.0,30.25,North,1,0.0,0.0,94,0.00,,,0.00,TxWx,2013-03-08 10:49:00,
2013-03-08 04:55:00,20.5,17.0,30.25,North,1,0.0,0.0,94,0.00,,,0.00,TxWx,2013-03-08 10:55:00,
2013-03-08 05:00:00,20.3,17.0,30.25,North,1,0.0,0.0,94,0.00,,,0.00,TxWx,2013-03-08 11:00:00,
2013-03-08 05:05:00,20.3,17.0,30.25,North,5,0.0,0.0,94,0.00,,,0.00,TxWx,2013-03-08 11:05:00,
2013-03-08 05:10:00,20.2,17.0,30.25,North,3,0.0,0.0,94,0.00,,,0.00,TxWx,2013-03-08 11:10:00,
2013-03-08 05:16:00,20.4,17.0,30.25,North,3,0.0,0.0,94,0.00,,,0.00,TxWx,2013-03-08 11:16:00,
2013-03-08 05:21:00,20.3,17.0,30.25,North,4,0.0,0.0,94,0.00,,,0.00,TxWx,2013-03-08 11:21:00,
2013-03-08 05:26:00,20.1,17.0,30.26,North,5,0.0,0.0,94,0.00,,,0.00,TxWx,2013-03-08 11:26:00,
2013-03-08 05:32:00,19.8,17.0,30.25,North,3,0.0,0.0,94,0.00,,,0.00,TxWx,2013-03-08 11:32:00,
2013-03-08 05:37:00,19.9,17.0,30.25,North,4,0.0,0.0,94,0.00,,,0.00,TxWx,2013-03-08 11:37:00,
2013-03-08 05:42:00,19.9,17.0,30.25,North,6,0.0,0.0,94,0.00,,,0.00,TxWx,2013-03-08 11:42:00,
2013-03-08 05:47:00,19.9,17.0,30.25,North,9,0.0,0.0,94,0.00,,,0.00,TxWx,2013-03-08 11:47:00,
2013-03-08 05:52:00,20.1,17.0,30.25,North,4,0.0,0.0,94,0.00,,,0.00,TxWx,2013-03-08 11:52:00,
2013-03-08 05:58:00,20.0,17.0,30.25,North,4,0.0,0.0,94,0.00,,,0.00,TxWx,2013-03-08 11:58:00,
2013-03-08 06:03:00,20.0,17.0,30.25,North,4,0.0,0.0,94,0.00,,,0.00,TxWx,2013-03-08 12:03:00,
2013-03-08 06:09:00,19.9,17.0,30.25,North,4,0.0,0.0,93,0.00,,,0.00,TxWx,2013-03-08 12:09:00,
2013-03-08 06:14:00,19.8,17.0,30.25,North,4,0.0,0.0,93,0.00,,,0.00,TxWx,2013-03-08 12:14:00,
2013-03-08 06:19:00,20.4,17.0,30.25,North,4,0.0,0.0,94,0.00,,,0.00,TxWx,2013-03-08 12:19:00,
2013-03-08 06:24:00,20.6,18.0,30.25,North,11,0.0,0.0,94,0.00,,,0.00,TxWx,2013-03-08 12:24:00,
2013-03-08 06:29:00,21.1,18.0,30.25,North,6,0.0,0.0,94,0.00,,,0.00,TxWx,2013-03-08 12:29:00,
2013-03-08 06:34:00,21.3,18.0,30.25,North,6,0.0,0.0,94,0.00,,,0.00,TxWx,2013-03-08 12:34:00,
2013-03-08 06:39:00,21.3,18.0,30.25,North,4,0.0,0.0,93,0.00,,,0.00,TxWx,2013-03-08 12:39:00,
2013-03-08 06:45:00,21.4,18.0,30.26,NE,49,0.0,0.0,93,0.00,,,0.00,TxWx,2013-03-08 12:45:00,
2013-03-08 06:50:00,21.7,19.0,30.26,NE,47,0.0,0.0,93,0.00,,,0.00,TxWx,2013-03-08 12:50:00,
2013-03-08 06:55:00,22.0,19.0,30.26,NW,324,0.0,0.0,93,0.00,,,0.00,TxWx,2013-03-08 12:55:00,
2013-03-08 07:00:00,22.8,20.0,30.26,NW,325,0.0,0.0,93,0.00,,,0.00,TxWx,2013-03-08 13:00:00,
2013-03-08 07:06:00,24.5,22.0,30.26,NNE,14,0.0,0.0,94,0.00,,,0.00,TxWx,2013-03-08 13:06:00,
2013-03-08 07:11:00,25.5,23.0,30.26,NNE,14,0.0,0.0,93,0.00,,,0.00,TxWx,2013-03-08 13:11:00,
2013-03-08 07:16:00,26.3,23.0,30.26,North,10,0.0,0.0,93,0.00,,,0.00,TxWx,2013-03-08 13:16:00,
2013-03-08 07:21:00,26.1,23.0,30.26,NNE,19,0.0,0.0,91,0.00,,,0.00,TxWx,2013-03-08 13:21:00,
2013-03-08 07:26:00,26.1,22.0,30.26,NNE,18,0.0,0.0,90,0.00,,,0.00,TxWx,2013-03-08 13:26:00,
2013-03-08 07:31:00,26.3,22.0,30.27,North,7,0.0,0.0,88,0.00,,,0.00,TxWx,2013-03-08 13:31:00,
2013-03-08 07:36:00,26.9,22.0,30.26,North,6,0.0,0.0,86,0.00,,,0.00,TxWx,2013-03-08 13:36:00,
2013-03-08 07:41:00,27.1,22.0,30.26,North,10,0.0,0.0,84,0.00,,,0.00,TxWx,2013-03-08 13:41:00,
2013-03-08 07:47:00,27.6,22.0,30.26,North,3,0.0,0.0,82,0.00,,,0.00,TxWx,2013-03-08 13:47:00,
2013-03-08 07:52:00,27.7,21.0,30.27,NNE,12,0.0,0.0,79,0.00,,,0.00,TxWx,2013-03-08 13:52:00,
2013-03-08 07:57:00,27.7,20.0,30.27,NNE,12,0.0,0.0,76,0.00,,,0.00,TxWx,2013-03-08 13:57:00,
2013-03-08 08:02:00,27.7,20.0,30.27,North,11,0.0,0.0,75,0.00,,,0.00,TxWx,2013-03-08 14:02:00,
2013-03-08 08:07:00,27.8,20.0,30.27,North,9,0.0,0.0,74,0.00,,,0.00,TxWx,2013-03-08 14:07:00,
2013-03-08 08:12:00,27.8,19.0,30.27,North,9,0.0,0.0,73,0.00,,,0.00,TxWx,2013-03-08 14:12:00,
2013-03-08 08:17:00,28.5,19.0,30.27,North,8,0.0,0.0,73,0.00,,,0.00,TxWx,2013-03-08 14:17:00,
2013-03-08 08:22:00,27.6,19.0,30.27,NE,40,0.0,0.0,71,0.00,,,0.00,TxWx,2013-03-08 14:22:00,
2013-03-08 08:28:00,28.5,20.0,30.27,NNE,33,0.0,0.0,72,0.00,,,0.00,TxWx,2013-03-08 14:28:00,
2013-03-08 08:33:00,29.1,19.0,30.27,NNE,27,0.0,0.0,70,0.00,,,0.00,TxWx,2013-03-08 14:33:00,
2013-03-08 08:38:00,29.5,19.0,30.27,NNE,29,0.0,0.0,69,0.00,,,0.00,TxWx,2013-03-08 14:38:00,
2013-03-08 08:44:00,30.2,20.0,30.27,NE,41,0.0,0.0,69,0.00,,,0.00,TxWx,2013-03-08 14:44:00,
2013-03-08 08:49:00,29.7,19.0,30.27,NE,43,0.0,0.0,67,0.00,,,0.00,TxWx,2013-03-08 14:49:00,
2013-03-08 08:54:00,29.0,18.0,30.27,NE,39,0.0,0.0,66,0.00,,,0.00,TxWx,2013-03-08 14:54:00,
2013-03-08 08:59:00,29.4,18.0,30.27,NE,42,0.0,0.0,66,0.00,,,0.00,TxWx,2013-03-08 14:59:00,
2013-03-08 09:04:00,30.0,19.0,30.27,NNE,28,0.0,0.0,67,0.00,,,0.00,TxWx,2013-03-08 15:04:00,
2013-03-08 09:09:00,30.1,19.0,30.27,NE,47,0.0,0.0,65,0.00,,,0.00,TxWx,2013-03-08 15:09:00,
2013-03-08 09:15:00,30.2,18.0,30.27,NE,39,0.0,0.0,65,0.00,,,0.00,TxWx,2013-03-08 15:15:00,
2013-03-08 09:20:00,30.5,19.0,30.27,NNE,23,0.0,0.0,64,0.00,,,0.00,TxWx,2013-03-08 15:20:00,
2013-03-08 09:25:00,31.0,19.0,30.27,NNE,30,0.0,0.0,64,0.00,,,0.00,TxWx,2013-03-08 15:25:00,
2013-03-08 09:30:00,29.9,18.0,30.27,NE,39,0.0,0.0,63,0.00,,,0.00,TxWx,2013-03-08 15:30:00,
2013-03-08 09:35:00,30.1,18.0,30.27,NE,39,0.0,0.0,64,0.00,,,0.00,TxWx,2013-03-08 15:35:00,
2013-03-08 09:40:00,30.8,19.0,30.27,NE,37,0.0,0.0,64,0.00,,,0.00,TxWx,2013-03-08 15:40:00,
2013-03-08 09:46:00,31.0,19.0,30.27,NE,48,0.0,0.0,63,0.00,,,0.00,TxWx,2013-03-08 15:46:00,
2013-03-08 09:51:00,31.4,18.0,30.27,NE,43,0.0,0.0,62,0.00,,,0.00,TxWx,2013-03-08 15:51:00,
2013-03-08 09:56:00,31.9,20.0,30.28,ENE,58,0.0,0.0,63,0.00,,,0.00,TxWx,2013-03-08 15:56:00,
2013-03-08 10:01:00,31.2,18.0,30.28,NE,51,0.0,0.0,62,0.00,,,0.00,TxWx,2013-03-08 16:01:00,
2013-03-08 10:07:00,31.3,19.0,30.28,NE,49,0.0,0.0,63,0.00,,,0.00,TxWx,2013-03-08 16:07:00,
2013-03-08 10:12:00,31.8,19.0,30.28,NE,50,0.0,0.0,61,0.00,,,0.00,TxWx,2013-03-08 16:12:00,
2013-03-08 10:17:00,31.6,19.0,30.28,NE,52,0.0,0.0,62,0.00,,,0.00,TxWx,2013-03-08 16:17:00,
2013-03-08 10:23:00,32.4,19.0,30.28,NE,42,0.0,0.0,60,0.00,,,0.00,TxWx,2013-03-08 16:23:00,
2013-03-08 10:28:00,32.1,18.0,30.28,NE,53,0.0,0.0,58,0.00,,,0.00,TxWx,2013-03-08 16:28:00,
2013-03-08 10:33:00,32.5,19.0,30.27,NE,43,0.0,0.0,58,0.00,,,0.00,TxWx,2013-03-08 16:33:00,
2013-03-08 10:39:00,32.4,18.0,30.27,NE,37,0.0,0.0,58,0.00,,,0.00,TxWx,2013-03-08 16:39:00,
2013-03-08 10:44:00,32.7,19.0,30.27,NE,43,0.0,0.0,59,0.00,,,0.00,TxWx,2013-03-08 16:44:00,
2013-03-08 10:49:00,32.4,18.0,30.27,NE,45,0.0,0.0,58,0.00,,,0.00,TxWx,2013-03-08 16:49:00,
2013-03-08 10:54:00,32.9,18.0,30.26,NE,53,0.0,0.0,57,0.00,,,0.00,TxWx,2013-03-08 16:54:00,
2013-03-08 10:59:00,32.7,18.0,30.26,ENE,57,0.0,0.0,56,0.00,,,0.00,TxWx,2013-03-08 16:59:00,
2013-03-08 11:04:00,33.0,18.0,30.26,NE,51,0.0,0.0,57,0.00,,,0.00,TxWx,2013-03-08 17:04:00,
2013-03-08 11:10:00,33.0,18.0,30.26,ENE,57,0.0,0.0,57,0.00,,,0.00,TxWx,2013-03-08 17:10:00,
2013-03-08 11:15:00,33.8,19.0,30.26,NE,55,0.0,0.0,57,0.00,,,0.00,TxWx,2013-03-08 17:15:00,
2013-03-08 11:20:00,33.3,18.0,30.26,NE,50,0.0,0.0,56,0.00,,,0.00,TxWx,2013-03-08 17:20:00,
2013-03-08 11:26:00,33.8,19.0,30.26,NE,51,0.0,0.0,56,0.00,,,0.00,TxWx,2013-03-08 17:26:00,
2013-03-08 11:31:00,33.7,19.0,30.26,NE,38,0.0,0.0,57,0.00,,,0.00,TxWx,2013-03-08 17:31:00,
2013-03-08 11:36:00,34.2,19.0,30.25,NE,50,0.0,0.0,57,0.00,,,0.00,TxWx,2013-03-08 17:36:00,
2013-03-08 11:41:00,34.0,19.0,30.25,NE,55,0.0,0.0,56,0.00,,,0.00,TxWx,2013-03-08 17:41:00,
2013-03-08 11:46:00,34.2,19.0,30.25,NE,54,0.0,0.0,57,0.00,,,0.00,TxWx,2013-03-08 17:46:00,
2013-03-08 11:51:00,34.0,19.0,30.25,NE,48,0.0,0.0,57,0.00,,,0.00,TxWx,2013-03-08 17:51:00,
2013-03-08 11:57:00,34.5,19.0,30.25,NE,49,0.0,0.0,57,0.00,,,0.00,TxWx,2013-03-08 17:57:00,
2013-03-08 12:02:00,34.8,20.0,30.25,ENE,61,0.0,0.0,57,0.00,,,0.00,TxWx,2013-03-08 18:02:00,
2013-03-08 12:07:00,34.6,20.0,30.25,ENE,66,0.0,0.0,56,0.00,,,0.00,TxWx,2013-03-08 18:07:00,
2013-03-08 12:12:00,35.0,19.0,30.25,NE,47,0.0,0.0,55,0.00,,,0.00,TxWx,2013-03-08 18:12:00,
2013-03-08 12:17:00,34.8,19.0,30.25,ENE,69,0.0,0.0,55,0.00,,,0.00,TxWx,2013-03-08 18:17:00,
2013-03-08 12:22:00,35.3,19.0,30.25,ENE,58,0.0,0.0,55,0.00,,,0.00,TxWx,2013-03-08 18:22:00,
2013-03-08 12:27:00,34.7,19.0,30.25,NE,48,0.0,0.0,54,0.00,,,0.00,TxWx,2013-03-08 18:27:00,
2013-03-08 12:32:00,35.2,19.0,30.24,ENE,60,0.0,0.0,55,0.00,,,0.00,TxWx,2013-03-08 18:32:00,
2013-03-08 12:38:00,35.1,19.0,30.24,ENE,57,0.0,0.0,54,0.00,,,0.00,TxWx,2013-03-08 18:38:00,
2013-03-08 12:43:00,35.1,19.0,30.24,NE,56,0.0,0.0,54,0.00,,,0.00,TxWx,2013-03-08 18:43:00,
2013-03-08 12:48:00,35.2,19.0,30.23,ENE,57,0.0,0.0,55,0.00,,,0.00,TxWx,2013-03-08 18:48:00,
2013-03-08 12:54:00,35.7,20.0,30.23,ENE,66,0.0,0.0,55,0.00,,,0.00,TxWx,2013-03-08 18:54:00,
2013-03-08 12:59:00,35.3,19.0,30.22,NE,54,0.0,0.0,54,0.00,,,0.00,TxWx,2013-03-08 18:59:00,
2013-03-08 13:04:00,35.3,19.0,30.22,ENE,63,0.0,0.0,54,0.00,,,0.00,TxWx,2013-03-08 19:04:00,
2013-03-08 13:09:00,35.5,19.0,30.22,ENE,58,0.0,0.0,55,0.00,,,0.00,TxWx,2013-03-08 19:09:00,
2013-03-08 13:15:00,35.8,20.0,30.22,ENE,61,0.0,0.0,54,0.00,,,0.00,TxWx,2013-03-08 19:15:00,
2013-03-08 13:20:00,35.2,19.0,30.21,NE,55,0.0,0.0,54,0.00,,,0.00,TxWx,2013-03-08 19:20:00,
2013-03-08 13:25:00,35.8,20.0,30.21,ENE,58,0.0,0.0,54,0.00,,,0.00,TxWx,2013-03-08 19:25:00,
2013-03-08 13:30:00,36.0,20.0,30.21,NE,56,0.0,0.0,53,0.00,,,0.00,TxWx,2013-03-08 19:30:00,
2013-03-08 13:35:00,36.2,20.0,30.21,NE,55,0.0,0.0,54,0.00,,,0.00,TxWx,2013-03-08 19:35:00,
2013-03-08 13:40:00,35.7,19.0,30.21,NE,55,0.0,0.0,53,0.00,,,0.00,TxWx,2013-03-08 19:40:00,
2013-03-08 13:45:00,35.8,19.0,30.21,ENE,59,0.0,0.0,53,0.00,,,0.00,TxWx,2013-03-08 19:45:00,
2013-03-08 13:51:00,36.1,19.0,30.21,NE,55,0.0,0.0,53,0.00,,,0.00,TxWx,2013-03-08 19:51:00,
2013-03-08 13:56:00,36.0,19.0,30.21,ENE,59,0.0,0.0,53,0.00,,,0.00,TxWx,2013-03-08 19:56:00,
2013-03-08 14:01:00,36.1,19.0,30.21,ENE,58,0.0,0.0,53,0.00,,,0.00,TxWx,2013-03-08 20:01:00,
2013-03-08 14:06:00,36.3,19.0,30.21,NE,50,0.0,0.0,52,0.00,,,0.00,TxWx,2013-03-08 20:06:00,
2013-03-08 14:12:00,36.2,19.0,30.21,NE,56,0.0,0.0,53,0.00,,,0.00,TxWx,2013-03-08 20:12:00,
2013-03-08 14:17:00,36.1,19.0,30.20,NE,53,0.0,0.0,52,0.00,,,0.00,TxWx,2013-03-08 20:17:00,
2013-03-08 14:22:00,36.3,19.0,30.20,ENE,58,0.0,0.0,52,0.00,,,0.00,TxWx,2013-03-08 20:22:00,
2013-03-08 14:27:00,36.2,19.0,30.20,ENE,62,0.0,0.0,52,0.00,,,0.00,TxWx,2013-03-08 20:27:00,
2013-03-08 14:32:00,36.6,20.0,30.19,ENE,64,0.0,0.0,52,0.00,,,0.00,TxWx,2013-03-08 20:32:00,
2013-03-08 14:38:00,37.1,20.0,30.19,NE,56,0.0,0.0,52,0.00,,,0.00,TxWx,2013-03-08 20:38:00,
2013-03-08 14:43:00,37.3,20.0,30.19,ENE,59,0.0,0.0,51,0.00,,,0.00,TxWx,2013-03-08 20:43:00,
2013-03-08 14:48:00,37.5,20.0,30.19,ENE,59,0.0,0.0,51,0.00,,,0.00,TxWx,2013-03-08 20:48:00,
2013-03-08 14:53:00,37.0,19.0,30.19,ENE,57,0.0,0.0,51,0.00,,,0.00,TxWx,2013-03-08 20:53:00,
2013-03-08 14:58:00,37.2,19.0,30.19,ENE,65,0.0,0.0,51,0.00,,,0.00,TxWx,2013-03-08 20:58:00,
2013-03-08 15:03:00,36.9,19.0,30.19,NE,52,0.0,0.0,51,0.00,,,0.00,TxWx,2013-03-08 21:03:00,
2013-03-08 15:09:00,36.9,20.0,30.19,ENE,60,0.0,0.0,51,0.00,,,0.00,TxWx,2013-03-08 21:09:00,
2013-03-08 15:14:00,37.1,20.0,30.18,NE,50,0.0,0.0,51,0.00,,,0.00,TxWx,2013-03-08 21:14:00,
2013-03-08 15:19:00,37.3,20.0,30.19,ENE,68,0.0,0.0,51,0.00,,,0.00,TxWx,2013-03-08 21:19:00,
2013-03-08 15:24:00,37.5,20.0,30.19,ENE,57,0.0,0.0,51,0.00,,,0.00,TxWx,2013-03-08 21:24:00,
2013-03-08 15:29:00,37.6,20.0,30.19,ENE,57,0.0,0.0,51,0.00,,,0.00,TxWx,2013-03-08 21:29:00,
2013-03-08 15:34:00,37.7,20.0,30.19,NE,53,0.0,0.0,51,0.00,,,0.00,TxWx,2013-03-08 21:34:00,
2013-03-08 15:40:00,37.9,20.0,30.19,NE,52,0.0,0.0,51,0.00,,,0.00,TxWx,2013-03-08 21:40:00,
2013-03-08 15:45:00,37.5,20.0,30.18,NE,56,0.0,0.0,50,0.00,,,0.00,TxWx,2013-03-08 21:45:00,
2013-03-08 15:50:00,37.1,19.0,30.18,NE,47,0.0,0.0,51,0.00,,,0.00,TxWx,2013-03-08 21:50:00,
2013-03-08 15:55:00,37.1,19.0,30.18,ENE,59,0.0,0.0,51,0.00,,,0.00,TxWx,2013-03-08 21:55:00,
2013-03-08 16:01:00,37.3,19.0,30.19,NE,46,0.0,0.0,50,0.00,,,0.00,TxWx,2013-03-08 22:01:00,
2013-03-08 16:06:00,37.2,19.0,30.19,NE,48,0.0,0.0,50,0.00,,,0.00,TxWx,2013-03-08 22:06:00,
2013-03-08 16:11:00,37.6,21.0,30.18,NE,50,0.0,0.0,52,0.00,,,0.00,TxWx,2013-03-08 22:11:00,
2013-03-08 16:16:00,37.4,20.0,30.18,NE,49,0.0,0.0,51,0.00,,,0.00,TxWx,2013-03-08 22:16:00,
2013-03-08 16:21:00,37.4,19.0,30.18,NE,56,0.0,0.0,51,0.00,,,0.00,TxWx,2013-03-08 22:21:00,
2013-03-08 16:26:00,37.3,19.0,30.18,NE,35,0.0,0.0,51,0.00,,,0.00,TxWx,2013-03-08 22:26:00,
2013-03-08 16:31:00,37.1,19.0,30.18,NE,44,0.0,0.0,51,0.00,,,0.00,TxWx,2013-03-08 22:31:00,
2013-03-08 16:36:00,37.1,20.0,30.17,NE,38,0.0,0.0,51,0.00,,,0.00,TxWx,2013-03-08 22:36:00,
2013-03-08 16:41:00,37.2,20.0,30.17,NE,46,0.0,0.0,52,0.00,,,0.00,TxWx,2013-03-08 22:41:00,
2013-03-08 16:47:00,36.9,20.0,30.17,NE,38,0.0,0.0,51,0.00,,,0.00,TxWx,2013-03-08 22:47:00,
2013-03-08 16:52:00,37.0,20.0,30.17,NE,55,0.0,0.0,53,0.00,,,0.00,TxWx,2013-03-08 22:52:00,
2013-03-08 16:57:00,36.9,20.0,30.17,NE,45,0.0,0.0,53,0.00,,,0.00,TxWx,2013-03-08 22:57:00,
2013-03-08 17:03:00,36.8,20.0,30.18,NE,46,0.0,0.0,53,0.00,,,0.00,TxWx,2013-03-08 23:03:00,
2013-03-08 17:08:00,36.7,20.0,30.17,NE,46,0.0,0.0,53,0.00,,,0.00,TxWx,2013-03-08 23:08:00,
2013-03-08 17:13:00,36.7,21.0,30.17,NE,38,0.0,0.0,54,0.00,,,0.00,TxWx,2013-03-08 23:13:00,
2013-03-08 17:19:00,36.6,21.0,30.17,NNE,32,0.0,0.0,55,0.00,,,0.00,TxWx,2013-03-08 23:19:00,
2013-03-08 17:24:00,36.4,20.0,30.17,NE,35,0.0,0.0,55,0.00,,,0.00,TxWx,2013-03-08 23:24:00,
2013-03-08 17:29:00,36.3,21.0,30.17,NE,40,0.0,0.0,56,0.00,,,0.00,TxWx,2013-03-08 23:29:00,
2013-03-08 17:34:00,36.0,21.0,30.17,NE,36,0.0,0.0,57,0.00,,,0.00,TxWx,2013-03-08 23:34:00,
2013-03-08 17:39:00,35.8,21.0,30.17,NE,41,0.0,0.0,58,0.00,,,0.00,TxWx,2013-03-08 23:39:00,
2013-03-08 17:45:00,35.5,22.0,30.18,NNE,28,0.0,0.0,59,0.00,,,0.00,TxWx,2013-03-08 23:45:00,
2013-03-08 17:50:00,35.3,21.0,30.18,NE,38,0.0,0.0,59,0.00,,,0.00,TxWx,2013-03-08 23:50:00,
2013-03-08 17:55:00,35.1,21.0,30.18,NE,37,0.0,0.0,60,0.00,,,0.00,TxWx,2013-03-08 23:55:00,
2013-03-08 18:00:00,34.9,22.0,30.18,NE,37,0.0,0.0,60,0.00,,,0.00,TxWx,2013-03-09 00:00:00,
2013-03-08 18:05:00,34.7,22.0,30.18,NE,36,0.0,0.0,61,0.00,,,0.00,TxWx,2013-03-09 00:05:00,
2013-03-08 18:11:00,34.6,22.0,30.18,NE,41,0.0,0.0,61,0.00,,,0.00,TxWx,2013-03-09 00:11:00,
2013-03-08 18:16:00,34.4,21.0,30.18,NE,37,0.0,0.0,61,0.00,,,0.00,TxWx,2013-03-09 00:16:00,
2013-03-08 18:21:00,34.3,21.0,30.18,NE,39,0.0,0.0,61,0.00,,,0.00,TxWx,2013-03-09 00:21:00,
2013-03-08 18:26:00,34.2,21.0,30.18,NNE,31,0.0,0.0,61,0.00,,,0.00,TxWx,2013-03-09 00:26:00,
2013-03-08 18:31:00,34.0,21.0,30.18,NE,36,0.0,0.0,62,0.00,,,0.00,TxWx,2013-03-09 00:31:00,
2013-03-08 18:37:00,33.9,21.0,30.18,NE,42,0.0,0.0,62,0.00,,,0.00,TxWx,2013-03-09 00:37:00,
2013-03-08 18:42:00,33.7,22.0,30.18,NE,42,0.0,0.0,63,0.00,,,0.00,TxWx,2013-03-09 00:42:00,
2013-03-08 18:47:00,33.6,22.0,30.18,NE,37,0.0,0.0,63,0.00,,,0.00,TxWx,2013-03-09 00:47:00,
2013-03-08 18:52:00,33.4,21.0,30.18,NNE,30,0.0,0.0,63,0.00,,,0.00,TxWx,2013-03-09 00:52:00,
2013-03-08 18:58:00,33.1,21.0,30.18,NNE,29,0.0,0.0,63,0.00,,,0.00,TxWx,2013-03-09 00:58:00,
2013-03-08 19:03:00,33.1,21.0,30.17,NE,39,0.0,0.0,64,0.00,,,0.00,TxWx,2013-03-09 01:03:00,
2013-03-08 19:08:00,32.9,21.0,30.17,NE,37,0.0,0.0,64,0.00,,,0.00,TxWx,2013-03-09 01:08:00,
2013-03-08 19:14:00,32.7,21.0,30.17,NE,37,0.0,0.0,64,0.00,,,0.00,TxWx,2013-03-09 01:14:00,
2013-03-08 19:19:00,32.6,21.0,30.17,NE,35,0.0,0.0,64,0.00,,,0.00,TxWx,2013-03-09 01:19:00,
2013-03-08 19:24:00,32.6,21.0,30.18,NE,48,0.0,0.0,65,0.00,,,0.00,TxWx,2013-03-09 01:24:00,
2013-03-08 19:29:00,32.5,21.0,30.18,NE,49,0.0,0.0,65,0.00,,,0.00,TxWx,2013-03-09 01:29:00,
2013-03-08 19:35:00,32.5,20.0,30.18,NE,36,0.0,0.0,65,0.00,,,0.00,TxWx,2013-03-09 01:35:00,
2013-03-08 19:40:00,32.2,20.0,30.18,NNE,31,0.0,0.0,65,0.00,,,0.00,TxWx,2013-03-09 01:40:00,
2013-03-08 19:45:00,32.0,21.0,30.19,NE,34,0.0,0.0,66,0.00,,,0.00,TxWx,2013-03-09 01:45:00,
2013-03-08 19:50:00,31.8,21.0,30.19,NE,42,0.0,0.0,67,0.00,,,0.00,TxWx,2013-03-09 01:50:00,
2013-03-08 19:55:00,31.9,21.0,30.19,NE,39,0.0,0.0,67,0.00,,,0.00,TxWx,2013-03-09 01:55:00,
2013-03-08 20:00:00,31.7,21.0,30.18,NE,43,0.0,0.0,67,0.00,,,0.00,TxWx,2013-03-09 02:00:00,
2013-03-08 20:06:00,31.4,20.0,30.18,NNE,25,0.0,0.0,68,0.00,,,0.00,TxWx,2013-03-09 02:06:00,
2013-03-08 20:11:00,31.3,20.0,30.17,NE,38,0.0,0.0,68,0.00,,,0.00,TxWx,2013-03-09 02:11:00,
2013-03-08 20:16:00,31.4,20.0,30.17,NE,40,0.0,0.0,68,0.00,,,0.00,TxWx,2013-03-09 02:16:00,
2013-03-08 20:21:00,31.5,21.0,30.17,NE,37,0.0,0.0,68,0.00,,,0.00,TxWx,2013-03-09 02:21:00,
2013-03-08 20:26:00,31.5,21.0,30.17,NNE,32,0.0,0.0,67,0.00,,,0.00,TxWx,2013-03-09 02:26:00,
2013-03-08 20:31:00,31.6,21.0,30.17,NE,42,0.0,0.0,67,0.00,,,0.00,TxWx,2013-03-09 02:31:00,
2013-03-08 20:36:00,31.7,21.0,30.17,NE,39,0.0,0.0,67,0.00,,,0.00,TxWx,2013-03-09 02:36:00,
2013-03-08 20:41:00,31.8,21.0,30.16,NE,40,0.0,0.0,67,0.00,,,0.00,TxWx,2013-03-09 02:41:00,
2013-03-08 20:46:00,31.8,21.0,30.17,NNE,31,0.0,0.0,66,0.00,,,0.00,TxWx,2013-03-09 02:46:00,
2013-03-08 20:52:00,31.8,21.0,30.17,NNE,17,0.0,0.0,66,0.00,,,0.00,TxWx,2013-03-09 02:52:00,
2013-03-08 20:57:00,31.8,21.0,30.17,NNE,25,0.0,0.0,66,0.00,,,0.00,TxWx,2013-03-09 02:57:00,
2013-03-08 21:02:00,31.8,21.0,30.17,NNE,25,0.0,0.0,66,0.00,,,0.00,TxWx,2013-03-09 03:02:00,
2013-03-08 21:07:00,31.7,21.0,30.17,NNE,20,0.0,0.0,66,0.00,,,0.00,TxWx,2013-03-09 03:07:00,
2013-03-08 21:12:00,31.6,21.0,30.16,NNE,27,0.0,0.0,66,0.00,,,0.00,TxWx,2013-03-09 03:12:00,
2013-03-08 21:17:00,31.6,21.0,30.17,NE,47,0.0,0.0,66,0.00,,,0.00,TxWx,2013-03-09 03:17:00,
2013-03-08 21:23:00,31.6,21.0,30.17,NE,47,0.0,0.0,66,0.00,,,0.00,TxWx,2013-03-09 03:23:00,
2013-03-08 21:28:00,31.4,20.0,30.17,NE,45,0.0,0.0,66,0.00,,,0.00,TxWx,2013-03-09 03:28:00,
2013-03-08 21:33:00,31.4,20.0,30.17,NE,44,0.0,0.0,66,0.00,,,0.00,TxWx,2013-03-09 03:33:00,
2013-03-08 21:38:00,31.3,20.0,30.17,NNE,30,0.0,0.0,66,0.00,,,0.00,TxWx,2013-03-09 03:38:00,
2013-03-08 21:43:00,31.2,20.0,30.17,NNE,25,0.0,0.0,66,0.00,,,0.00,TxWx,2013-03-09 03:43:00,
2013-03-08 21:48:00,31.1,20.0,30.17,NNE,29,0.0,0.0,66,0.00,,,0.00,TxWx,2013-03-09 03:48:00,
2013-03-08 21:54:00,31.0,20.0,30.17,NNE,21,0.0,0.0,67,0.00,,,0.00,TxWx,2013-03-09 03:54:00,
2013-03-08 21:59:00,30.9,20.0,30.17,NNE,27,0.0,0.0,67,0.00,,,0.00,TxWx,2013-03-09 03:59:00,
2013-03-08 22:04:00,30.8,20.0,30.16,NNE,17,0.0,0.0,67,0.00,,,0.00,TxWx,2013-03-09 04:04:00,
2013-03-08 22:09:00,30.8,20.0,30.17,NNE,18,0.0,0.0,67,0.00,,,0.00,TxWx,2013-03-09 04:09:00,
2013-03-08 22:14:00,30.7,20.0,30.16,NNE,20,0.0,0.0,67,0.00,,,0.00,TxWx,2013-03-09 04:14:00,
2013-03-08 22:20:00,30.6,20.0,30.15,NNE,18,0.0,0.0,67,0.00,,,0.00,TxWx,2013-03-09 04:20:00,
2013-03-08 22:25:00,30.5,20.0,30.15,NNE,17,0.0,0.0,67,0.00,,,0.00,TxWx,2013-03-09 04:25:00,
2013-03-08 22:30:00,30.5,19.0,30.16,NNE,20,0.0,0.0,67,0.00,,,0.00,TxWx,2013-03-09 04:30:00,
2013-03-08 22:35:00,30.4,19.0,30.15,North,11,0.0,0.0,67,0.00,,,0.00,TxWx,2013-03-09 04:35:00,
2013-03-08 22:40:00,30.4,19.0,30.15,NNE,17,0.0,0.0,66,0.00,,,0.00,TxWx,2013-03-09 04:40:00,
2013-03-08 22:45:00,30.3,19.0,30.15,NNE,15,0.0,0.0,67,0.00,,,0.00,TxWx,2013-03-09 04:45:00,
2013-03-08 22:51:00,30.2,19.0,30.14,NNE,13,0.0,0.0,67,0.00,,,0.00,TxWx,2013-03-09 04:51:00,
2013-03-08 22:56:00,30.0,19.0,30.14,NNE,12,0.0,0.0,67,0.00,,,0.00,TxWx,2013-03-09 04:56:00,
2013-03-08 23:00:00,30.1,19.0,30.14,North,10,0.0,0.0,67,0.00,,,0.00,TxWx,2013-03-09 05:00:00,
2013-03-08 23:01:00,30.1,19.0,30.14,NNE,19,0.0,0.0,67,0.00,,,0.00,TxWx,2013-03-09 05:01:00,
2013-03-08 23:06:00,30.0,19.0,30.13,NNE,17,0.0,0.0,67,0.00,,,0.00,TxWx,2013-03-09 05:06:00,
2013-03-08 23:11:00,29.9,19.0,30.13,NNE,18,0.0,0.0,67,0.00,,,0.00,TxWx,2013-03-09 05:11:00,
2013-03-08 23:16:00,29.9,20.0,30.13,NNE,14,0.0,0.0,68,0.00,,,0.00,TxWx,2013-03-09 05:16:00,
2013-03-08 23:22:00,29.8,20.0,30.13,NNE,14,0.0,0.0,68,0.00,,,0.00,TxWx,2013-03-09 05:22:00,
2013-03-08 23:27:00,29.7,20.0,30.13,NNE,16,0.0,0.0,68,0.00,,,0.00,TxWx,2013-03-09 05:27:00,
2013-03-08 23:32:00,29.5,19.0,30.13,NNE,16,0.0,0.0,68,0.00,,,0.00,TxWx,2013-03-09 05:32:00,
2013-03-08 23:37:00,29.3,19.0,30.13,NNE,14,0.0,0.0,69,0.00,,,0.00,TxWx,2013-03-09 05:37:00,
2013-03-08 23:43:00,29.1,19.0,30.13,North,10,0.0,0.0,69,0.00,,,0.00,TxWx,2013-03-09 05:43:00,
2013-03-08 23:48:00,29.0,19.0,30.13,North,11,0.0,0.0,70,0.00,,,0.00,TxWx,2013-03-09 05:48:00,
2013-03-08 23:53:00,29.0,19.0,30.13,North,6,0.0,0.0,70,0.00,,,0.00,TxWx,2013-03-09 05:53:00,
2013-03-08 23:58:00,28.9,19.0,30.12,North,11,0.0,0.0,70,0.00,,,0.00,TxWx,2013-03-09 05:58:00,